[[{"header":{"parameterUnit":"m.s-1","parameterCategory":1,"la1":30.2991,"la2":30.254,"lo1":-89.0895,"lo2":-89.0444,"dy":0.0017,"dx":0.0017,"nx":28,"ny":28,"refTime":"2024-08-06T03:00:00:Z","depth":0,"parameterNumber":2,"parameterNumberName":"U-component_of_WINDS"},"data":[0,0,0,0,0,0,0,0,0,0,0,0,0,0,0,0,0,0,0,0,0,0,0,0,0,0,0,0,0,0,0,0,0,0,0,0,0,0,0,0,0,0,0,0,0,0,0,0,0,0,0,0,0,0,0,0,0,0,2.714,2.7141,0,2.7205,2.7206,2.7207,2.7205,2.7205,2.7204,2.7203,2.7272,2.7275,2.7277,0,0,0,0,0,0,0,0,0,0,0,0,0,2.7021,2.7023,2.714,2.7141,2.7142,2.7205,2.7206,2.7207,2.7206,2.7204,2.7203,2.7202,2.7271,2.7274,2.7278,0,0,0,0,0,0,0,0,0,0,0,0,0,2.7078,2.7023,2.714,2.7149,2.715,2.7205,2.7206,2.7207,2.7206,2.7204,2.7203,2.7202,2.727,2.7274,2.7278,2.733,0,0,2.729,2.7292,0,0,0,0,0,0,0,0,2.7075,2.7082,2.7147,2.7148,2.715,2.7196,2.7189,2.7248,2.7206,2.7185,2.7203,2.7201,2.7248,2.7254,2.7269,2.7333,2.7336,2.7291,2.7293,2.7295,2.7296,0,0,0,0,0,0,0,2.7071,2.7079,2.7166,2.7148,2.715,2.7151,2.7158,2.7201,2.7223,2.7187,2.7187,2.7194,2.7249,2.7265,2.7271,2.7337,2.7291,2.7294,2.7297,2.7298,2.7452,2.7453,0,0,0,0,0,0,2.7064,2.7076,2.7164,2.7168,2.7108,2.7154,2.7162,2.7182,2.7223,2.7227,2.7195,2.7194,2.7259,2.7266,2.7273,2.734,2.7295,2.7299,2.7301,2.745,2.7452,2.7454,0,0,0,0,0,0,2.7062,2.7072,2.7161,2.7122,2.7134,2.7158,2.7181,2.7184,2.7201,2.7229,2.7234,2.7207,2.7258,2.7267,2.7317,2.7342,2.73,2.7304,2.7448,2.7451,2.7453,2.747,0,0,0,0,0,0,2.7058,2.7071,2.7089,2.7123,2.7136,2.7202,2.7183,2.7187,2.7207,2.7206,2.7242,2.7247,2.7258,2.7311,2.7321,2.7347,2.7307,2.7446,2.7449,2.7452,2.7468,2.7473,2.7478,0,0,0,0,0,2.7054,2.7091,2.709,2.7101,2.7159,2.7203,2.7211,2.7222,2.7209,2.7229,2.7248,2.7245,2.7337,2.7316,2.7327,2.7354,2.7445,2.7448,2.7452,2.7466,2.7472,2.7478,0,0,0,0,0,0,2.706,2.7095,2.7095,2.7143,2.717,2.7203,2.7228,2.7228,2.726,2.7258,2.7272,2.728,2.733,2.7347,2.7322,2.7409,2.739,2.7396,2.7396,2.7403,2.7408,2.7403,2.7311,0,0,0,0,0,2.7067,2.7098,2.7128,2.7169,2.7182,2.7203,2.7223,2.723,2.7258,2.727,2.7292,2.7322,2.7358,2.7381,2.7415,2.747,2.748,2.7495,2.75,2.7504,2.751,2.7545,2.7553,2.7466,2.7466,2.7466,0,0,2.7081,2.7105,2.7124,2.7171,2.7192,2.7228,2.7212,2.7249,2.7276,2.7276,2.7324,2.7342,2.7376,2.743,2.7454,2.7445,2.7537,2.7509,2.7512,2.7516,2.755,2.7558,2.7565,2.7469,2.7468,2.7468,0,0,2.7126,2.7146,2.7183,2.7206,2.724,2.7254,2.7263,2.7297,2.7309,2.7357,2.7359,2.7393,2.7453,2.7478,2.7499,2.7559,2.7559,2.757,2.7597,2.7631,2.7638,2.7644,2.7669,2.7677,2.7575,2.7575,2.7575,0,2.714,2.7192,2.7203,2.7241,2.7263,2.7265,2.7305,2.7327,2.737,2.7387,2.7376,2.7455,2.7478,2.7539,2.7555,2.757,2.7584,2.7566,2.7636,2.7642,2.7648,2.7672,2.7681,2.7577,2.7576,2.7576,2.7576,0,2.721,2.7246,2.7272,2.7315,2.734,2.7379,2.7398,2.7423,2.7429,2.7445,2.7497,2.7525,2.7567,2.7582,2.7587,2.7646,2.764,2.7632,2.7613,2.7658,2.7681,2.7689,2.7578,2.7578,2.7578,2.7577,0,0,2.7258,2.7309,2.7319,2.734,2.7379,2.7408,2.7449,2.749,2.7513,2.7544,2.758,2.7634,2.7628,2.7652,2.7661,2.769,2.7741,2.768,2.7681,2.7693,2.7812,2.782,2.783,2.7741,2.7743,2.7744,2.7811,0,2.731,2.7381,2.7394,2.7457,2.7493,2.7497,2.7534,2.7563,2.758,2.7615,2.7635,2.7674,2.7661,2.7677,2.7706,2.7728,2.7766,2.7723,2.7778,2.778,2.7772,2.7841,2.7848,2.7909,2.7819,2.7821,2.7822,0,2.7378,2.7412,2.7479,2.7517,2.7533,2.7565,2.7606,2.7638,2.7673,2.7684,2.7713,2.7719,2.7766,2.7744,2.781,2.7781,2.7805,2.782,2.7822,2.7829,2.7805,2.7852,2.7928,2.7938,2.7835,2.7834,2.7833,0,2.7411,2.7473,2.7523,2.754,2.7585,2.7608,2.7628,2.7662,2.7688,2.7724,2.7742,2.7783,2.7806,2.784,2.7859,2.784,2.7925,2.7903,2.7938,2.7937,2.7956,2.7955,2.8039,2.7967,2.7967,2.7967,2.7967,0,2.7469,2.751,2.7539,2.7569,2.7617,2.7633,2.7681,2.7701,2.7732,2.7769,2.7775,2.7809,2.7831,2.787,2.7885,2.794,2.795,2.7962,2.7966,2.7963,2.7962,2.798,2.7977,2.7969,2.7969,2.7968,2.7968,0,2.7513,2.7534,2.7588,2.7627,2.7638,2.7673,2.7707,2.7739,2.7757,2.7804,2.7816,2.7845,2.7892,2.7914,2.7971,2.7982,2.8045,2.8044,2.8033,2.8035,2.8069,2.8066,2.8169,2.8185,2.81,2.8101,2.8102,0,2.7549,2.7582,2.7625,2.765,2.7671,2.771,2.7737,2.7755,2.7783,2.7828,2.7855,2.7902,2.794,2.8015,2.8043,2.8088,2.8091,2.8124,2.8098,2.8095,2.8096,2.8094,2.81,2.8129,2.813,2.8131,2.8131,0,2.7612,2.7622,2.7659,2.7702,2.7733,2.7767,2.7801,2.7822,2.7846,2.7878,2.7926,2.7955,2.8015,2.8063,2.8111,2.8134,2.8139,2.8139,2.815,2.8148,2.8142,2.8149,2.8048,2.8137,2.8137,2.8136,2.8136,2.8136,2.7656,2.7687,2.7723,2.7766,2.7794,2.7826,2.7859,2.7882,2.7922,2.7972,2.7981,2.8033,2.8072,2.8137,2.8162,2.8205,2.8197,2.8212,2.8216,2.822,2.8224,2.8133,2.8213,2.8213,2.8213,2.8213,2.8213,0,2.7722,2.7747,2.7786,2.7834,2.7869,2.7868,2.7907,2.7937,2.7982,2.8018,2.8056,2.8113,2.8161,2.8194,2.8243,2.8271,2.8275,2.8284,2.8283,2.8289,2.8226,2.8213,2.828,2.828,2.828,2.828,2.828,2.828,2.7761,2.7814,2.7828,2.7897,2.7922,2.7972,2.7995,2.8026,2.8055,2.8119,2.8158,2.8179,2.8215,2.8267,2.8312,2.8321,2.834,2.835,2.8359,2.83,2.8293,2.8286,2.8274,2.8353,2.8353,2.8419,2.842,2.842]},{"header":{"parameterUnit":"m.s-1","parameterCategory":1,"la1":30.2991,"la2":30.254,"lo1":-89.0895,"lo2":-89.0444,"dy":0.0017,"dx":0.0017,"nx":28,"ny":28,"refTime":"2024-08-06T03:00:00:Z","depth":0,"parameterNumber":3,"parameterNumberName":"V-component_of_WINDS"},"data":[0,0,0,0,0,0,0,0,0,0,0,0,0,0,0,0,0,0,0,0,0,0,0,0,0,0,0,0,0,0,0,0,0,0,0,0,0,0,0,0,0,0,0,0,0,0,0,0,0,0,0,0,0,0,0,0,0,0,-2.2866,-2.2866,0,-2.2839,-2.2839,-2.2838,-2.2898,-2.29,-2.2902,-2.2904,-2.2871,-2.2868,-2.2865,0,0,0,0,0,0,0,0,0,0,0,0,0,-2.2967,-2.2965,-2.2866,-2.2866,-2.2866,-2.2839,-2.2839,-2.2838,-2.2898,-2.29,-2.2903,-2.2905,-2.2872,-2.2868,-2.2865,0,0,0,0,0,0,0,0,0,0,0,0,0,-2.293,-2.2964,-2.2866,-2.2892,-2.2895,-2.2839,-2.2839,-2.2838,-2.2897,-2.29,-2.2903,-2.2906,-2.2873,-2.2869,-2.2865,-2.2781,0,0,-2.2852,-2.2851,0,0,0,0,0,0,0,0,-2.2932,-2.2926,-2.2889,-2.2891,-2.2893,-2.2875,-2.2862,-2.2819,-2.2897,-2.2896,-2.2904,-2.2907,-2.2869,-2.2866,-2.2854,-2.278,-2.2778,-2.2852,-2.285,-2.2848,-2.2847,0,0,0,0,0,0,0,-2.2934,-2.2928,-2.2855,-2.2888,-2.2891,-2.2904,-2.2902,-2.2854,-2.2867,-2.2896,-2.2901,-2.2897,-2.2871,-2.2858,-2.2854,-2.2778,-2.2852,-2.2848,-2.2846,-2.2844,-2.2636,-2.2633,0,0,0,0,0,0,-2.2934,-2.2929,-2.2856,-2.2855,-2.292,-2.29,-2.2898,-2.2878,-2.2867,-2.2869,-2.2894,-2.29,-2.2863,-2.2858,-2.2853,-2.2756,-2.2848,-2.2844,-2.2842,-2.2639,-2.2635,-2.2632,0,0,0,0,0,0,-2.2936,-2.2927,-2.2857,-2.2893,-2.2885,-2.2895,-2.2872,-2.2876,-2.2863,-2.2866,-2.2868,-2.2879,-2.2866,-2.2859,-2.28,-2.2756,-2.2842,-2.2838,-2.2643,-2.2638,-2.2634,-2.256,0,0,0,0,0,0,-2.2939,-2.2928,-2.2896,-2.2892,-2.2883,-2.2805,-2.287,-2.2873,-2.2856,-2.2863,-2.2852,-2.2853,-2.2867,-2.2805,-2.2796,-2.2752,-2.2835,-2.2647,-2.2641,-2.2635,-2.2567,-2.2554,-2.2543,0,0,0,0,0,-2.2942,-2.2875,-2.2894,-2.2885,-2.2845,-2.2802,-2.2797,-2.2817,-2.2852,-2.2821,-2.2824,-2.2853,-2.2762,-2.2799,-2.2788,-2.2742,-2.265,-2.2642,-2.2636,-2.2572,-2.2556,-2.2543,0,0,0,0,0,0,-2.2871,-2.2875,-2.2896,-2.2826,-2.2814,-2.2813,-2.2773,-2.2799,-2.2775,-2.2782,-2.2806,-2.2803,-2.2739,-2.2735,-2.2776,-2.2662,-2.2712,-2.2702,-2.2667,-2.2652,-2.264,-2.2642,-2.2832,0,0,0,0,0,-2.2848,-2.2815,-2.2819,-2.2757,-2.275,-2.2763,-2.2745,-2.2761,-2.2749,-2.2743,-2.2741,-2.2727,-2.2695,-2.2674,-2.2644,-2.2567,-2.2566,-2.253,-2.2518,-2.2508,-2.25,-2.246,-2.2444,-2.2609,-2.2609,-2.2609,0,0,-2.2798,-2.2796,-2.2773,-2.2742,-2.2735,-2.2699,-2.2758,-2.2717,-2.269,-2.2736,-2.2681,-2.268,-2.2665,-2.2597,-2.2567,-2.2591,-2.2454,-2.25,-2.2492,-2.2488,-2.2451,-2.2435,-2.2422,-2.2604,-2.2605,-2.2606,0,0,-2.269,-2.2685,-2.2633,-2.2625,-2.2614,-2.2624,-2.2612,-2.2607,-2.2609,-2.2554,-2.2589,-2.2557,-2.2502,-2.2491,-2.2478,-2.2369,-2.2395,-2.2359,-2.2295,-2.2256,-2.2243,-2.2232,-2.2193,-2.2179,-2.235,-2.235,-2.235,0,-2.2629,-2.2578,-2.2603,-2.2561,-2.2546,-2.259,-2.2538,-2.2528,-2.2507,-2.2496,-2.2524,-2.2458,-2.2451,-2.2382,-2.2355,-2.2343,-2.233,-2.2359,-2.2243,-2.2232,-2.2222,-2.2185,-2.2171,-2.2345,-2.2346,-2.2346,-2.2347,0,-2.2504,-2.2468,-2.2427,-2.2409,-2.239,-2.2343,-2.2361,-2.2339,-2.2357,-2.2364,-2.2309,-2.2303,-2.2274,-2.2259,-2.2275,-2.2192,-2.2208,-2.224,-2.229,-2.2201,-2.2168,-2.2154,-2.2339,-2.2341,-2.2342,-2.2343,0,0,-2.2347,-2.2346,-2.2331,-2.2324,-2.2316,-2.2288,-2.2244,-2.2218,-2.2199,-2.2184,-2.2147,-2.2101,-2.2131,-2.2116,-2.2132,-2.2098,-2.2013,-2.2134,-2.2134,-2.2112,-2.1922,-2.1898,-2.1882,-2.2032,-2.2029,-2.2027,-2.1923,0,-2.224,-2.2165,-2.2188,-2.2112,-2.208,-2.2122,-2.2083,-2.2074,-2.2079,-2.2052,-2.2057,-2.2025,-2.2067,-2.2058,-2.2026,-2.203,-2.1975,-2.2038,-2.1996,-2.1995,-2.1998,-2.1864,-2.1838,-2.174,-2.191,-2.1908,-2.1906,0,-2.2105,-2.2088,-2.2009,-2.2009,-2.1997,-2.1961,-2.1941,-2.1914,-2.1905,-2.1912,-2.1897,-2.1921,-2.1877,-2.1929,-2.1868,-2.191,-2.1895,-2.1895,-2.1891,-2.1887,-2.1944,-2.1856,-2.1709,-2.1695,-2.1886,-2.1887,-2.1889,0,-2.1999,-2.1956,-2.1904,-2.1897,-2.1895,-2.187,-2.1868,-2.1862,-2.1846,-2.1828,-2.1818,-2.1794,-2.178,-2.1761,-2.1778,-2.1814,-2.1715,-2.1768,-2.1719,-2.1718,-2.1695,-2.1696,-2.1543,-2.1686,-2.1686,-2.1686,-2.1686,0,-2.1877,-2.1827,-2.1857,-2.1824,-2.177,-2.1797,-2.1743,-2.1745,-2.174,-2.1709,-2.1744,-2.1713,-2.1738,-2.171,-2.1723,-2.1671,-2.1665,-2.1668,-2.1672,-2.1665,-2.1665,-2.1655,-2.1662,-2.1682,-2.1683,-2.1684,-2.1684,0,-2.1749,-2.1767,-2.1713,-2.1718,-2.1718,-2.1678,-2.1681,-2.1651,-2.1661,-2.1621,-2.1613,-2.1627,-2.1596,-2.1612,-2.1579,-2.1588,-2.1521,-2.1534,-2.1525,-2.1528,-2.1478,-2.1483,-2.1314,-2.1293,-2.1448,-2.1447,-2.1446,0,-2.1669,-2.1633,-2.1635,-2.1617,-2.1614,-2.1585,-2.157,-2.1596,-2.1578,-2.1567,-2.1538,-2.1511,-2.149,-2.1439,-2.1445,-2.1421,-2.1433,-2.1376,-2.1429,-2.1424,-2.1432,-2.1434,-2.1431,-2.1364,-2.1362,-2.1361,-2.136,0,-2.1527,-2.1538,-2.1516,-2.1497,-2.1479,-2.1465,-2.1453,-2.1437,-2.1463,-2.1441,-2.1412,-2.1396,-2.1364,-2.1336,-2.1316,-2.1313,-2.134,-2.1343,-2.1331,-2.1322,-2.1319,-2.1321,-2.1495,-2.1347,-2.1348,-2.1349,-2.135,-2.135,-2.1421,-2.1391,-2.1388,-2.1363,-2.1358,-2.1347,-2.132,-2.1328,-2.1304,-2.1281,-2.1298,-2.1263,-2.1256,-2.1232,-2.1226,-2.1198,-2.1221,-2.1202,-2.1198,-2.1193,-2.1186,-2.1324,-2.1195,-2.1195,-2.1195,-2.1196,-2.1196,0,-2.128,-2.1282,-2.1258,-2.1243,-2.1223,-2.1254,-2.1244,-2.1224,-2.1194,-2.1187,-2.1167,-2.1133,-2.1107,-2.1113,-2.109,-2.1066,-2.1078,-2.1059,-2.1061,-2.106,-2.1167,-2.1181,-2.105,-2.105,-2.105,-2.105,-2.105,-2.105,-2.1204,-2.1156,-2.1168,-2.1118,-2.1119,-2.1087,-2.1078,-2.1069,-2.1064,-2.1025,-2.1005,-2.101,-2.1008,-2.0986,-2.0963,-2.0966,-2.0955,-2.0931,-2.0938,-2.1038,-2.1052,-2.1066,-2.1079,-2.0929,-2.0929,-2.0833,-2.0833,-2.0832]}]]